SKYSAT-C10 (42988 NORAD) Tracking and Keplerian Element Data

This shows tracking and keplerian element data for the satellite.

Feedback or suggestion? Click here.




ElementValue
Catalog42988
NameSKYSAT-C10
Epoch Orbit21780
Epoch Day269.58353232
Epoch Year2021
RAAN24.936
Inclination97.2734
Eccentricity0.0002107
Argument of Perigee188.8095
Mean Anonmoly171.3115
Mean Motion15.40497322
Decay Rate5.403E-05
L11 42988U 17068B 21269.58353232 .00005403 00000-0 13531-3 0 9992
L22 42988 97.2734 24.9360 0002107 188.8095 171.3115 15.40497322217802

Live tracking and technical data element details for SKYSAT-C10 (NORAD 42988). SKYSAT-C10 can be tracked NOW for your location showing map with azimuth and elevation plus other details from your city location.

Track the satellite on the map from your city or location and see movement details for azimuth, elevation, latitude, longitude, range, height, and movement on the map or in text.







IsCatalogInMostPopularTable: catalog: 42988, numindb: 614
Update: records affected: 1



GetName: 42988 SKYSAT-C10

Hit Count: updated at: Tue, 28 Sep 2021 15:52:09 GMT